Maple Lake, MN

1:53 AM CDT on April 24, 2018 (GMT -0500)
Maple Lake Municipal

Weather History for KMGG - October, 2013

Change the Weather History Date:

Sunday, October 20, 2013

  Actual Average (KSTC) Record (KSTC)
Temperature  
Mean Temperature 36 °F -  
Max Temperature 41 °F 55 °F 81 °F (1953)
Min Temperature 30 °F 31 °F 17 °F (1989)
Degree Days  
Heating Degree Days 30    
Moisture  
Dew Point 34 °F    
Average Humidity 94    
Maximum Humidity 100    
Minimum Humidity 78    
Precipitation  
Precipitation 0.05 in - - ()
Sea Level Pressure  
Sea Level Pressure 29.74 in    
Wind  
Wind Speed 3 mph (NNW)    
Max Wind Speed 15 mph    
Max Gust Speed 24 mph    
Visibility 9 miles    
Events Rain , Snow    
Averages and records for this station are not official NWS values.
T = Trace of Precipitation, MM = Missing Value Source: NWS Daily Summary

Daily Weather History Graph

Daily Weather History Graph

Search for Another Location

Airport or City:

Astronomy

Oct. 20, 2013 Rise Set
Actual Time 7:38 AM CDT 6:21 PM CDT
Civil Twilight 7:08 AM CDT 6:51 PM CDT
Nautical Twilight 6:34 AM CDT 7:25 PM CDT
Astronomical Twilight 6:00 AM CDT 7:59 PM CDT
Moon 7:25 PM CDT (10/20) 9:22 AM CDT (10/20)
Length of Visible Light 11h 42m
Length of Day
10h 42m
Full, 97% of the Moon is Illuminated
Oct 20
Full
Oct 26
Last Quarter
Nov 3
New
Nov 9
First Quarter
Nov 17
Full

Hourly Weather History & Observations

Time (CDT) Temp. Windchill Dew Point Humidity Pressure Visibility Wind Dir Wind Speed Gust Speed Precip Events Conditions
12:16 AM 31.6 °F - 31.5 °F 99% 29.79 in 10.0 mi Calm Calm - N/A   Clear
12:36 AM 31.8 °F - 31.6 °F 99% 29.79 in 10.0 mi Calm Calm - N/A   Clear
12:56 AM 32.0 °F - 32.0 °F 100% 29.78 in 10.0 mi Calm Calm - N/A   Clear
1:16 AM 30.9 °F - 30.7 °F 99% 29.78 in 10.0 mi Calm Calm - N/A   Clear
1:36 AM 31.6 °F - 31.6 °F 100% 29.77 in 10.0 mi Calm Calm - N/A   Scattered Clouds
1:56 AM 32.0 °F - 32.0 °F 100% 29.77 in 10.0 mi Calm Calm - N/A   Scattered Clouds
2:16 AM 32.0 °F - 32.0 °F 100% 29.77 in 10.0 mi Calm Calm - N/A   Scattered Clouds
2:36 AM 32.0 °F - 32.0 °F 100% 29.77 in 10.0 mi Calm Calm - N/A   Overcast
2:56 AM 32.4 °F - 32.0 °F 99% 29.76 in 7.0 mi Calm Calm - N/A   Overcast
3:16 AM 32.0 °F - 31.5 °F 98% 29.75 in 7.0 mi Calm Calm - N/A   Overcast
3:36 AM 32.0 °F - 32.0 °F 100% 29.75 in 10.0 mi Calm Calm - N/A   Mostly Cloudy
3:56 AM 32.4 °F - 32.0 °F 99% 29.75 in 10.0 mi Calm Calm - N/A   Overcast
4:16 AM 32.9 °F - 32.5 °F 99% 29.75 in 10.0 mi Calm Calm - N/A   Overcast
4:36 AM 33.3 °F - 32.7 °F 98% 29.75 in 10.0 mi Calm Calm - N/A   Overcast
4:56 AM 33.8 °F - 32.9 °F 96% 29.75 in 10.0 mi Calm Calm - N/A   Overcast
5:17 AM 33.6 °F - 33.1 °F 98% 29.74 in 10.0 mi Calm Calm - N/A   Overcast
5:36 AM 33.8 °F 30.8 °F 32.9 °F 96% 29.73 in 10.0 mi SSE 3.5 mph - N/A   Overcast
5:56 AM 34.2 °F 31.2 °F 32.9 °F 95% 29.72 in 10.0 mi SE 3.5 mph - N/A   Overcast
6:16 AM 34.7 °F 31.8 °F 32.9 °F 93% 29.71 in 10.0 mi SE 3.5 mph - N/A   Overcast
6:36 AM 34.9 °F 30.8 °F 32.9 °F 92% 29.70 in 10.0 mi ESE 4.6 mph - N/A   Overcast
6:56 AM 34.9 °F 32.0 °F 32.9 °F 92% 29.70 in 7.0 mi SSE 3.5 mph - N/A Rain Light Rain
7:16 AM 34.7 °F 31.8 °F 32.9 °F 93% 29.70 in 7.0 mi SSE 3.5 mph - N/A   Drizzle
7:36 AM 34.7 °F 31.8 °F 32.9 °F 93% 29.70 in 7.0 mi SSE 3.5 mph - N/A   Overcast
7:56 AM 34.7 °F 31.8 °F 33.3 °F 94% 29.70 in 7.0 mi South 3.5 mph - 0.01 in   Overcast
8:16 AM 34.7 °F - 33.4 °F 95% 29.70 in 5.0 mi Calm Calm - N/A   Drizzle
8:36 AM 34.9 °F 32.0 °F 33.6 °F 95% 29.70 in 5.0 mi SSE 3.5 mph - N/A Rain Rain
8:56 AM 35.4 °F 30.5 °F 34.2 °F 95% 29.69 in 5.0 mi SSE 5.8 mph - N/A Rain Rain
9:16 AM 35.6 °F 32.8 °F 34.3 °F 95% 29.69 in 7.0 mi SSE 3.5 mph - N/A   Light Drizzle
9:36 AM 35.6 °F 32.8 °F 34.2 °F 94% 29.68 in 5.0 mi SE 3.5 mph - 0.01 in Rain Light Rain
9:56 AM 36.0 °F 33.3 °F 34.9 °F 96% 29.68 in 10.0 mi SE 3.5 mph - 0.01 in Rain Light Rain
10:16 AM 35.8 °F 31.9 °F 34.7 °F 96% 29.67 in 4.0 mi ESE 4.6 mph - N/A Snow Light Snow
10:36 AM 35.6 °F 31.7 °F 34.9 °F 97% 29.67 in 4.0 mi SE 4.6 mph - 0.01 in Rain Light Rain
10:56 AM 36.1 °F 32.3 °F 35.4 °F 97% 29.67 in 7.0 mi SE 4.6 mph - 0.02 in Rain Light Rain
11:16 AM 36.7 °F 32.0 °F 36.0 °F 97% 29.66 in 10.0 mi ESE 5.8 mph - N/A   Light Drizzle
11:36 AM 37.9 °F 33.5 °F 37.0 °F 97% 29.65 in 10.0 mi ESE 5.8 mph - N/A Rain Light Rain
11:56 AM 39.2 °F 37.0 °F 37.8 °F 95% 29.65 in 10.0 mi ESE 3.5 mph - N/A   Overcast
12:16 PM 39.6 °F 36.3 °F 37.4 °F 92% 29.64 in 10.0 mi ESE 4.6 mph - N/A   Overcast
12:36 PM 39.9 °F 36.7 °F 37.4 °F 91% 29.64 in 10.0 mi SE 4.6 mph - N/A   Overcast
12:56 PM 40.3 °F 38.2 °F 37.6 °F 90% 29.64 in 10.0 mi SE 3.5 mph - N/A   Overcast
1:16 PM 40.5 °F - 37.9 °F 91% 29.64 in 10.0 mi Calm Calm - N/A   Overcast
1:36 PM 41.0 °F - 38.3 °F 90% 29.63 in 10.0 mi Calm Calm - N/A   Overcast
1:56 PM 40.5 °F 38.4 °F 38.1 °F 91% 29.63 in 10.0 mi NNE 3.5 mph - N/A   Overcast
2:16 PM 40.5 °F 37.3 °F 38.3 °F 92% 29.63 in 10.0 mi NNE 4.6 mph - N/A   Overcast
2:36 PM 39.7 °F 34.9 °F 37.9 °F 93% 29.64 in 10.0 mi North 6.9 mph - N/A   Overcast
2:56 PM 39.2 °F 35.0 °F 37.8 °F 95% 29.65 in 4.0 mi North 5.8 mph - N/A   Drizzle
3:16 PM 38.7 °F 32.9 °F 37.8 °F 97% 29.66 in 5.0 mi North 8.1 mph - N/A Rain Light Rain
3:36 PM 37.8 °F 31.8 °F 37.0 °F 97% 29.67 in 2.5 mi NNW 8.1 mph - 0.01 in Rain Light Rain
3:56 PM 36.9 °F 31.4 °F 36.3 °F 98% 29.68 in 5.0 mi NNW 6.9 mph - 0.01 in Rain Light Rain
4:16 PM 36.5 °F 29.7 °F 35.8 °F 97% 29.69 in 10.0 mi NNW 9.2 mph - N/A   Light Drizzle
4:36 PM 36.3 °F 29.5 °F 35.6 °F 97% 29.70 in 10.0 mi NNW 9.2 mph - N/A Rain Light Rain
4:56 PM 36.5 °F 29.2 °F 35.6 °F 97% 29.72 in 7.0 mi NNW 10.4 mph - N/A Rain Rain
5:16 PM 36.5 °F 30.3 °F 35.8 °F 97% 29.73 in 10.0 mi NNW 8.1 mph - N/A Rain Light Rain
5:36 PM 36.7 °F 28.9 °F 35.8 °F 97% 29.74 in 10.0 mi NNW 11.5 mph - N/A   Overcast
5:56 PM 36.9 °F 28.2 °F 35.8 °F 96% 29.75 in 10.0 mi NNW 13.8 mph 18.4 mph N/A   Overcast
6:16 PM 36.9 °F 30.1 °F 35.6 °F 95% 29.77 in 10.0 mi NW 9.2 mph 19.6 mph N/A   Overcast
6:36 PM 37.2 °F 30.6 °F 35.4 °F 93% 29.79 in 10.0 mi NNW 9.2 mph 17.3 mph N/A   Overcast
6:56 PM 37.4 °F 31.4 °F 35.6 °F 93% 29.81 in 10.0 mi NW 8.1 mph - N/A   Overcast
7:16 PM 37.4 °F 30.3 °F 35.6 °F 93% 29.81 in 10.0 mi NW 10.4 mph - N/A   Overcast
7:36 PM 37.6 °F 32.3 °F 35.4 °F 92% 29.82 in 10.0 mi NW 6.9 mph - N/A   Overcast
7:56 PM 37.4 °F 32.1 °F 35.6 °F 93% 29.83 in 10.0 mi NW 6.9 mph - N/A   Overcast
8:16 PM 37.6 °F 31.0 °F 35.6 °F 93% 29.84 in 10.0 mi NW 9.2 mph - N/A   Overcast
8:36 PM 37.6 °F 32.3 °F 35.1 °F 91% 29.84 in 10.0 mi NW 6.9 mph - N/A   Overcast
8:56 PM 37.4 °F 32.1 °F 35.1 °F 91% 29.85 in 10.0 mi WNW 6.9 mph - N/A   Overcast
9:16 PM 37.8 °F 33.3 °F 35.2 °F 91% 29.85 in 10.0 mi West 5.8 mph - N/A   Mostly Cloudy
9:36 PM 37.8 °F 29.8 °F 35.6 °F 92% 29.86 in 10.0 mi WNW 12.7 mph 19.6 mph N/A   Overcast
9:56 PM 37.8 °F 30.7 °F 34.9 °F 89% 29.87 in 10.0 mi NW 10.4 mph 18.4 mph N/A   Overcast
10:16 PM 37.9 °F 31.5 °F 34.9 °F 89% 29.87 in 10.0 mi NW 9.2 mph 17.3 mph N/A   Overcast
10:36 PM 37.6 °F 30.5 °F 34.7 °F 89% 29.88 in 10.0 mi NW 10.4 mph - N/A   Overcast
10:56 PM 37.6 °F 31.0 °F 34.2 °F 87% 29.89 in 10.0 mi NW 9.2 mph 18.4 mph N/A   Overcast
11:16 PM 36.9 °F 28.2 °F 32.0 °F 83% 29.89 in 10.0 mi NW 13.8 mph 21.9 mph N/A   Overcast
11:36 PM 35.8 °F 26.5 °F 29.8 °F 79% 29.90 in 10.0 mi WNW 15.0 mph 23.0 mph N/A   Overcast
11:56 PM 34.9 °F 26.6 °F 28.6 °F 78% 29.90 in 10.0 mi NW 11.5 mph 24.2 mph N/A   Overcast